N5DUP Weather Reports


Display with metric or nautical units.
time (UTC)temp
F
wind
direction
speed
MPH
gust
MPH
rain 1hr
in
rain 24hr
in
rain mn
in
humidity
%
barometer
mb
20260507044821 54 85 0.0 3.0 0.00 0.00 0.00 72 1015.6
20260507043317 55 80 3.0 3.0 0.00 0.00 0.00 72 1015.4
20260507041832 55 78 1.0 3.0 0.00 0.00 0.00 71 1015.5
20260507040327 55 79 2.0 5.0 0.00 0.00 0.00 70 1015.4
20260507034815 56 93 4.0 8.0 0.00 0.00 0.00 69 1015.4
20260507033328 56 96 3.0 8.0 0.00 0.00 0.00 69 1015.4
20260507031815 57 111 4.0 8.0 0.00 0.00 0.00 68 1015.2
20260507030330 57 89 3.0 10.0 0.00 0.00 0.00 67 1015.0
20260507024831 58 97 3.0 6.0 0.00 0.00 0.00 66 1014.8
20260507023326 58 66 4.0 6.0 0.00 0.00 0.00 64 1014.8
20260507021831 59 88 3.0 6.0 0.00 0.00 0.00 62 1014.5
20260507020323 60 94 3.0 7.0 0.00 0.00 0.00 60 1014.5
20260507014830 60 74 3.0 6.0 0.00 0.00 0.00 58 1014.2
20260507013324 61 84 5.0 10.0 0.00 0.00 0.00 57 1014.1
20260507011820 62 95 6.0 11.0 0.00 0.00 0.00 56 1013.8
20260507010320 63 86 7.0 12.0 0.00 0.00 0.00 55 1013.6
20260507004837 63 85 5.0 12.0 0.00 0.00 0.00 54 1013.7
20260507003331 64 89 7.0 12.0 0.00 0.00 0.00 52 1013.6
20260507001827 65 79 8.0 13.0 0.00 0.00 0.00 51 1013.4
20260507000328 66 74 9.0 14.0 0.00 0.00 0.00 50 1013.3
20260506234818 66 30 5.0 13.0 0.00 0.00 0.00 52 1013.2
20260506233333 66 40 8.0 13.0 0.00 0.00 0.00 49 1013.2
20260506231825 67 46 5.0 11.0 0.00 0.00 0.00 49 1013.2
20260506230320 67 38 7.0 11.0 0.00 0.00 0.00 47 1012.9
20260506224829 67 12 6.0 11.0 0.00 0.00 0.00 46 1012.7
20260506223322 68 322 6.0 10.0 0.00 0.00 0.00 45 1012.5
20260506221836 68 36 4.0 9.0 0.00 0.00 0.00 46 1012.4
20260506220330 68 9 3.0 9.0 0.00 0.00 0.00 46 1012.4
20260506214826 69 40 5.0 9.0 0.00 0.00 0.00 44 1012.4
20260506213320 69 324 4.0 9.0 0.00 0.00 0.00 44 1012.4
20260506211831 69 43 5.0 10.0 0.00 0.00 0.00 44 1012.4
20260506210328 69 42 3.0 10.0 0.00 0.00 0.00 44 1012.6
20260506204827 70 75 6.0 10.0 0.00 0.00 0.00 43 1012.8
20260506203320 69 42 5.0 9.0 0.00 0.00 0.00 46 1012.8
20260506201832 68 83 6.0 10.0 0.00 0.00 0.00 47 1013.0
20260506200325 66 65 4.0 10.0 0.00 0.00 0.00 49 1013.1
20260506194823 66 46 3.0 9.0 0.00 0.00 0.00 48 1013.3
20260506193321 67 24 4.0 10.0 0.00 0.00 0.00 50 1013.4
20260506191850 66 15 6.0 12.0 0.00 0.00 0.00 52 1013.6
20260506190326 64 66 5.0 12.0 0.00 0.00 0.00 55 1013.7
20260506184814 63 61 6.0 11.0 0.00 0.00 0.00 56 1014.0
20260506183330 62 49 4.0 9.0 0.00 0.00 0.00 57 1014.2
20260506181822 61 44 5.0 11.0 0.00 0.00 0.00 57 1014.5
20260506180315 61 17 4.0 9.0 0.00 0.00 0.00 58 1014.6
20260506174842 59 300 5.0 11.0 0.00 0.00 0.00 60 1014.6
20260506173334 59 57 6.0 11.0 0.00 0.00 0.00 63 1014.7
20260506171826 58 9 5.0 12.0 0.00 0.00 0.00 66 1014.8
20260506170319 56 71 9.0 13.0 0.00 0.00 0.00 69 1014.7
20260506164834 55 355 4.0 13.0 0.00 0.00 0.00 72 1014.8
20260506163346 53 42 9.0 14.0 0.00 0.00 0.00 73 1014.9
20260506161834 52 41 7.0 13.0 0.00 0.00 0.00 75 1014.6
20260506160327 52 344 6.0 12.0 0.00 0.00 0.00 76 1014.3
20260506154817 52 5 9.0 13.0 0.00 0.00 0.00 77 1014.5
20260506153330 51 360 8.0 14.0 0.00 0.00 0.00 77 1014.3
20260506151848 51 346 7.0 15.0 0.00 0.00 0.00 78 1014.0
20260506150319 51 11 8.0 14.0 0.00 0.00 0.00 78 1014.0
20260506144848 51 36 6.0 12.0 0.00 0.00 0.00 78 1013.8
20260506143341 51 22 5.0 15.0 0.00 0.00 0.00 79 1014.1
20260506141832 51 39 6.0 13.0 0.00 0.00 0.00 78 1014.3
20260506140325 50 57 9.0 14.0 0.00 0.00 0.00 78 1014.0
20260506134836 50 51 6.0 13.0 0.00 0.00 0.00 78 1014.3
20260506133350 50 61 8.0 14.0 0.00 0.00 0.00 78 1014.2
20260506131839 50 13 8.0 15.0 0.00 0.00 0.00 78 1013.8
20260506130322 50 57 9.0 13.0 0.00 0.00 0.00 78 1013.6
20260506124816 50 51 7.0 12.0 0.00 0.00 0.00 78 1013.3
20260506123329 51 45 7.0 12.0 0.00 0.00 0.00 78 1013.3
20260506121821 51 44 8.0 11.0 0.00 0.00 0.00 78 1013.0
20260506120315 51 51 4.0 13.0 0.00 0.00 0.00 78 1012.5
20260506114828 51 45 8.0 16.0 0.00 0.00 0.00 78 1011.8
20260506113340 51 51 6.0 12.0 0.00 0.00 0.00 78 1011.5
20260506111830 51 43 4.0 11.0 0.00 0.00 0.00 79 1011.6
20260506110325 51 49 5.0 13.0 0.00 0.00 0.00 79 1011.4
20260506104821 51 52 6.0 12.0 0.00 0.00 0.00 79 1011.3
20260506103352 51 42 6.0 11.0 0.00 0.00 0.00 79 1011.2
20260506101824 51 46 7.0 11.0 0.00 0.00 0.00 80 1011.3
20260506100316 51 54 5.0 9.0 0.00 0.00 0.00 81 1011.3
20260506094826 51 46 4.0 7.0 0.00 0.00 0.00 81 1010.7
20260506093320 51 46 4.0 11.0 0.00 0.00 0.00 81 1010.4
20260506091850 51 5 4.0 10.0 0.00 0.00 0.00 80 1010.6
20260506090343 51 53 4.0 6.0 0.00 0.00 0.00 80 1010.5
20260506084816 52 46 4.0 6.0 0.00 0.00 0.00 79 1010.5
20260506083327 52 53 6.0 11.0 0.00 0.00 0.00 79 1010.3
20260506081822 52 45 4.0 7.0 0.00 0.00 0.00 78 1010.3
20260506080338 53 59 4.0 9.0 0.00 0.00 0.00 78 1010.4
20260506073317 53 59 6.0 10.0 0.00 0.00 0.00 77 1010.5
20260506071830 54 58 5.0 9.0 0.00 0.00 0.00 76 1010.3
20260506070327 54 41 4.0 10.0 0.00 0.00 0.00 75 1010.3
20260506061826 56 61 6.0 11.0 0.00 0.00 0.00 71 1010.1
20260506060319 57 42 5.0 10.0 0.00 0.00 0.00 71 1010.0
20260506050340 60 63 4.0 9.0 0.00 0.00 0.00 65 1009.1